This is the latest recevied weather packets stored in our database for station/object N4CRH-13. If no packets are shown the sender has not sent any weather packets the latest 10 day(s).
| Time | Temp. | Humidity | Pressure | Rain* | Wind** | Luminosity | Snow |
|---|---|---|---|---|---|---|---|
| 1777740572 | 12.78° C | 28% | 1300.5 hPa | 0 mm | - | 647 W/m² | - |
| 1777739661 | 12.78° C | 31% | 1300.4 hPa | 0 mm | - | 618 W/m² | - |
| 1777739359 | 12.78° C | 29% | 1300.5 hPa | 0 mm | - | 607 W/m² | - |
| 1777739056 | 12.78° C | 30% | 1300.5 hPa | 0 mm | - | 596 W/m² | - |
| 1777738753 | 12.22° C | 29% | 1300.7 hPa | 0 mm | - | 586 W/m² | - |
| 1777738449 | 11.67° C | 29% | 1300.8 hPa | 0 mm | - | 573 W/m² | - |
| 1777738147 | 11.67° C | 31% | 1300.7 hPa | 0 mm | - | 562 W/m² | - |
| 1777737846 | 11.67° C | 29% | 1300.8 hPa | 0 mm | - | 550 W/m² | - |
| 1777736937 | 11.67° C | 28% | 1300.9 hPa | 0 mm | - | 520 W/m² | - |
| 1777736032 | 11.11° C | 28% | 1301 hPa | 0 mm | - | 476 W/m² | - |
| 1777735728 | 11.11° C | 28% | 1300.8 hPa | 0 mm | - | 463 W/m² | - |
| 1777735426 | 11.67° C | 30% | 1300.8 hPa | 0 mm | - | 448 W/m² | - |
| 1777735124 | 11.11° C | 32% | 1300.9 hPa | 0 mm | - | 435 W/m² | - |
| 1777734820 | 11.11° C | 33% | 1300.8 hPa | 0 mm | - | 422 W/m² | - |
| 1777734518 | 11.11° C | 30% | 1300.9 hPa | 0 mm | - | 407 W/m² | - |
| 1777733910 | 10.56° C | 30% | 1300.9 hPa | 0 mm | - | 380 W/m² | - |
| 1777733304 | 10.56° C | 32% | 1301 hPa | 0 mm | - | 348 W/m² | - |
| 1777732696 | 10.56° C | 32% | 1300.8 hPa | 0 mm | - | 317 W/m² | - |
| 1777732394 | 11.11° C | 32% | 1301 hPa | 0 mm | - | 306 W/m² | - |
| 1777732091 | 11.67° C | 33% | 1301.3 hPa | 0 mm | - | 289 W/m² | - |
| 1777731788 | 10.56° C | 36% | 1300.9 hPa | 0 mm | - | 274 W/m² | - |
| 1777731485 | 10.56° C | 39% | 1301 hPa | 0 mm | - | 261 W/m² | - |
| 1777731184 | 9.44° C | 47% | 1301.2 hPa | 0 mm | - | 246 W/m² | - |
| 1777730881 | 10° C | 44% | 1300.8 hPa | 0 mm | - | 232 W/m² | - |
| 1777730578 | 8.89° C | 48% | 1300.8 hPa | 0 mm | - | 218 W/m² | - |
* Rain latest hour (hover to see other rain measurements)
** Current wind speed in m/s (hover to see current wind gust speed)